Regional Weather Roundup
Issued by NWS

Home | Current Version | Previous Version | Graphics & Text | Print | Product List | Glossary On
Versions: 1 2 3 4 5 6 7 8 9 10 11 12 13 14 15 16 17 18 19 20 21 22 23 24 25 26 27 28 29 30 31 32 33 34 35 36 37 38 39 40 41 42 43 44 45 46 47 48 49 50
000
ASUS45 KTFX 171610
RWRMT
MONTANA REGIONAL WEATHER ROUNDUP
NATIONAL WEATHER SERVICE GREAT FALLS MT
900 AM MST TUE JAN 17 2017

NOTE: "FAIR" INDICATES FEW OR NO CLOUDS BELOW 12000 FEET WITH NO
SIGNIFICANT WEATHER AND/OR OBSTRUCTIONS TO VISIBILITY.

MTZ001>007-043-171700-
WEST OF THE DIVIDE

CITY           SKY/WX    TMP DP  RH WIND       PRES   REMARKS
KALISPELL      CLOUDY    14  10  84 CALM      30.06S FOG
MISSOULA       CLOUDY    -1  -4  87 CALM      30.16S FOG
BUTTE          CLOUDY     0  -5  79 CALM      30.05R
MULLAN PASS    CLOUDY    25  16  68 S12G18    29.92F WCI  14
ANACONDA         N/A     19   5  53 N6        30.03R WCI  11
DEER LODGE       N/A      1  -2  85 CALM      30.08S
EUREKA           N/A     25  16  68 S12       29.99F WCI  14
HAMILTON         N/A      0  -4  85 NE5       30.10S
PLAINS           N/A      5  -3  69 CALM      30.12R
RONAN            N/A      4  -2  76 MISG      30.07S
THOMPSON FALLS   N/A     11   5  76 E12       30.10S WCI  -3
$$

MTZ008-052>055-171700-
SOUTHWEST MONTANA

CITY           SKY/WX    TMP DP  RH WIND       PRES   REMARKS
BOZEMAN        CLOUDY     8   3  80 S6        30.08S WCI  -2
DILLON         CLOUDY    24   5  44 SW12      30.07F WCI  13
W YELLOWSTONE  CLOUDY   -13 -18  77 CALM      30.22R
ENNIS          CLEAR     21  12  68 S21       30.12R WCI   6
TWIN BRIDGES     N/A      9  -2  61 E7        30.06S WCI  -2
$$

MTZ009-010-012-014-046-048-049-054-171700-
EAST SLOPES AND CENTRAL MONTANA

CITY           SKY/WX    TMP DP  RH WIND       PRES   REMARKS
CUT BANK       CLOUDY    40  26  57 W26       29.76R
GREAT FALLS    CLOUDY    32  16  51 SW28      29.84R WCI  18
MALMSTROM AFB  CLOUDY    35  18  49 SW24G32   29.86R WCI  23
HELENA         CLOUDY     1  -3  83 CALM      30.09R FOG
AUGUSTA          N/A     34  20  56 S17       29.86R WCI  23
BOWMANS CRNR     N/A     26  11  53 S24       29.89R WCI  10
CHOTEAU          N/A     37  21  52 SW10      29.85S WCI  30
CONRAD           N/A     38  27  65 S7        29.85R
FAIRFIELD        N/A     30  15  53 SW28      29.84S WCI  16
POWER            N/A     31  18  58 SW22      29.83R WCI  18
RAYNESFORD       N/A     48  17  28 SW25G36   29.82R
ULM              N/A     31  17  56 MISG      29.88R
$$

MTZ011-013-016-021-045-047-050-051-171700-
NORTH CENTRAL MONTANA

CITY           SKY/WX    TMP DP  RH WIND       PRES   REMARKS
HAVRE          CLOUDY    36  25  64 SW31      29.75R WCI  23
LEWISTOWN      CLOUDY    37  22  54 SW20      29.82R WCI  27
N BAR RANCH      N/A     45  23  42 W6        29.82R
CHINOOK          N/A     43  23  45 SW28      29.68F
DENTON           N/A     39  23  52 SW15G31   29.77R WCI  31
FORT BENTON      N/A     39  19  45 MISG      29.83R
GEYSER           N/A     42  21  42 W23       29.79F
GRASS RANGE      N/A     43  23  45 SW12      29.76R
JUDITH GAP       N/A     33  17  53 SE10      29.84R WCI  25
ROY              N/A     40  28  60 MISG      29.76R
STANFORD         N/A     45  25  45 W22       29.80R
WINIFRED         N/A     41  24  51 SW14      29.79R
$$

MTZ017>020-022>027-061-062-171700-
NORTHEAST MONTANA

CITY           SKY/WX    TMP DP  RH WIND       PRES   REMARKS
GLASGOW        CLOUDY    16  10  77 S12       29.73F WCI   3
JORDAN           N/A     31  20  63 W10       29.78R WCI  22
SIDNEY         CLOUDY    15   9  76 S14       29.82R WCI   0
WOLF POINT     CLOUDY     4  -1  80 CALM      29.78S
PLENTYWOOD       N/A     14   9  79 SE9       29.72R WCI   2
POPLAR           N/A      9   1  72 SE3       29.77F
SCOBEY           N/A     24   6  46 SE9       29.69F WCI  14
$$

MTZ028>42-056>058-171700-
SOUTHCENTRAL AND SOUTHEAST MONTANA

CITY           SKY/WX    TMP DP  RH WIND       PRES   REMARKS
BAKER          CLOUDY    27  12  53 SW21      29.84S WCI  13
BILLINGS       CLOUDY    29  13  51 SW26G35   29.88S WCI  14
LIVINGSTON     CLOUDY    36  16  44 SW31G39   29.94  WCI  23
MILES CITY     CLOUDY    14   6  70 S14       29.86S WCI  -1
BIG TIMBER     CLEAR     37  16  41 W25G40    29.94R WCI  26
EKALAKA          N/A     34   7  32 SW14      29.84S WCI  25
FORSYTH          N/A     12   5  73 CALM      29.86R
HARLOWTON        N/A     39  17  41 W40G47    29.84F WCI  25
LAUREL           N/A     28  12  51 S18       29.89S WCI  15
$$

REGIONAL REPORTS...DAKOTAS

CITY           SKY/WX    TMP DP  RH WIND       PRES   REMARKS
WILLISTON      CLOUDY    17   9  70 S7        29.79F WCI   8
MINOT          CLOUDY    19  11  70 S8        29.79S WCI   9
DICKINSON      CLOUDY    20  10  65 S15       29.81S WCI   6
BEACH            N/A     27  12  54 SW21      29.83S WCI  13
CROSBY           N/A     18  10  73 S25G32    29.71S WCI  -1
TIOGA            N/A     19  14  79 SW18      29.75F WCI   4
WATFORD CITY     N/A     16   9  73 SW14      29.80S WCI   1
BISMARCK       CLOUDY     5   2  87 SE5       29.94R
GRAND FORKS    CLOUDY    11   6  81 S10       29.92S WCI  -3
FARGO          CLOUDY    10   7  87 S9        29.98R WCI  -3
BUFFALO SD       N/A     22   9  57 SW9       29.81S WCI  12
RAPID CITY     CLOUDY    16   8  71 CALM      29.91F
$$

REGIONAL REPORTS...WYOMING/IDAHO/WASHINGTON

CITY           SKY/WX    TMP DP  RH WIND       PRES   REMARKS
GILLETTE       CLOUDY    30  11  45 SW21      29.93S WCI  17
SHERIDAN       CLOUDY    16   3  56 S3        29.90F
BUFFALO WY     CLOUDY    31   6  35 SW8       29.93R WCI  23
CODY           CLOUDY    11   2  67 NE3       30.00R
YELLOWSTONE LA   N/A     -9 -11  91 CALM      30.19R
IDAHO FALLS    CLOUDY    -6  -9  86 N6        30.31R WCI -19
SALMON         CLOUDY   -15 -17  91 CALM      30.39R
BOISE          CLEAR      2  -2  83 CALM      30.35S FOG
SPOKANE        CLOUDY    17  14  88 CALM      30.04S
$$

REGIONAL REPORTS...ALBERTA

CITY           SKY/WX    TMP DP  RH WIND       PRES   REMARKS
EDMONTON       MOCLDY    37  25  60 SW7       29.36S
CALGARY        MOCLDY    43  28  56 S10       29.50F
LETHBRIDGE     MOCLDY    43  30  61 SW32G40   29.65F
MEDICINE HAT   MOCLDY    41  32  70 SW24G32   29.56R
WATERTON GATE    N/A     41  21  45 SW20G30     N/A
CARDSTON         N/A     43  27  52 SE5         N/A
MILK RIVER       N/A     39  30  70 SW31        N/A  WCI  27
$$

REGIONAL REPORTS...SASKATCHEWAN

CITY           SKY/WX    TMP DP  RH WIND       PRES   REMARKS
SWIFT CURRENT  CLEAR     37  28  70 SW22      29.54S WCI  27
REGINA         MOCLDY    28  21  74 S9        29.55F WCI  20
SASKATOON      MOCLDY    30  25  80 SW13      29.43S WCI  20
ROCKGLEN         N/A     30  19  64 SW24        N/A  WCI  16
ASSINIBOIA       N/A     30  25  80 S6          N/A  WCI  24
$$



USA.gov is the U.S. government's official web portal to all federal, state and local government web resources and services.